YACHTS Weather Reports


Display with metric or nautical units.
time (UTC)temp
F
wind
direction
speed
MPH
gust
MPH
rain 1hr
in
rain 24hr
in
rain mn
in
humidity
%
barometer
mb
20260505224025 53 295 6.0 9.0 0.00 0.00 0.00 89 1016.4
20260505222959 52 309 6.0 8.0 0.00 0.00 0.00 89 1016.3
20260505222446 53 327 6.0 8.0 0.00 0.00 0.00 89 1016.4
20260505221933 53 334 6.0 8.0 0.00 0.00 0.00 89 1016.4
20260505221420 53 320 5.0 8.0 0.00 0.00 0.00 89 1016.5
20260505220907 53 0 0.0 8.0 0.00 0.00 0.00 90 1016.4
20260505220354 53 306 5.0 8.0 0.00 0.00 0.00 89 1016.4
20260505215841 53 316 0.0 6.0 0.00 0.00 0.00 89 1016.5
20260505215328 53 0 0.0 7.0 0.00 0.00 0.00 90 1016.7
20260505214302 53 282 6.0 7.0 0.00 0.00 0.00 90 1016.7
20260505213749 52 298 0.0 5.0 0.00 0.00 0.00 90 1016.8
20260505213236 53 306 2.0 7.0 0.00 0.00 0.00 90 1016.8
20260505212723 52 289 2.0 7.0 0.00 0.00 0.00 90 1016.8
20260505212210 52 310 4.0 7.0 0.00 0.00 0.00 90 1016.8
20260505211144 52 278 4.0 7.0 0.00 0.00 0.00 90 1016.7
20260505210631 52 305 0.0 6.0 0.00 0.00 0.00 90 1016.7
20260505210119 52 267 3.0 6.0 0.00 0.00 0.00 90 1016.7
20260505205605 52 303 5.0 7.0 0.00 0.00 0.00 90 1016.7
20260505205052 52 0 0.0 7.0 0.00 0.00 0.00 90 1016.8
20260505204539 52 289 3.0 5.0 0.00 0.00 0.00 90 1016.8
20260505204026 52 0 0.0 0.0 0.00 0.00 0.00 90 1016.9
20260505203514 52 292 3.0 6.0 0.00 0.00 0.00 90 1016.9
20260505203000 52 0 0.0 6.0 0.00 0.00 0.00 90 1017.0
20260505202447 52 316 3.0 6.0 0.00 0.00 0.00 90 1016.9
20260505201934 52 298 3.0 6.0 0.00 0.00 0.00 89 1017.0
20260505201421 53 296 3.0 6.0 0.00 0.00 0.00 90 1017.0
20260505200907 52 327 3.0 5.0 0.00 0.00 0.00 89 1016.9
20260505200355 53 0 0.0 6.0 0.00 0.00 0.00 89 1017.0
20260505195841 53 0 0.0 6.0 0.00 0.00 0.00 89 1017.0
20260505194815 53 292 0.0 8.0 0.00 0.00 0.00 90 1016.9
20260505194302 53 0 0.0 8.0 0.00 0.00 0.00 90 1016.8
20260505193749 53 310 4.0 8.0 0.00 0.00 0.00 90 1016.8
20260505193238 53 291 1.0 8.0 0.00 0.00 0.00 90 1016.8
20260505192723 53 295 3.0 8.0 0.00 0.00 0.00 90 1016.6
20260505192210 53 274 3.0 8.0 0.00 0.00 0.00 90 1016.7
20260505191144 52 215 0.0 7.0 0.00 0.00 0.00 90 1016.7
20260505190631 53 295 1.0 7.0 0.00 0.00 0.00 90 1016.6
20260505190118 52 168 0.0 8.0 0.00 0.00 0.00 90 1016.7
20260505185605 52 224 2.0 8.0 0.00 0.00 0.00 90 1016.7
20260505185052 52 305 2.0 8.0 0.00 0.00 0.00 90 1016.7
20260505184539 53 257 0.0 8.0 0.00 0.00 0.00 90 1016.6
20260505184026 53 259 3.0 8.0 0.00 0.00 0.00 90 1016.6
20260505183513 52 309 1.0 8.0 0.00 0.00 0.00 90 1016.6
20260505183000 52 352 3.0 8.0 0.00 0.00 0.00 91 1016.5
20260505182447 52 291 4.0 8.0 0.00 0.00 0.00 90 1016.5
20260505181935 52 309 1.0 8.0 0.00 0.00 0.00 91 1016.4
20260505181421 52 277 1.0 8.0 0.00 0.00 0.00 91 1016.5
20260505180908 52 305 2.0 8.0 0.00 0.00 0.00 91 1016.4
20260505180356 52 287 0.0 6.0 0.00 0.00 0.00 91 1016.4
20260505175842 52 309 2.0 6.0 0.00 0.00 0.00 91 1016.4
20260505175330 52 0 0.0 6.0 0.00 0.00 0.00 91 1016.5
20260505174303 52 0 0.0 8.0 0.00 0.00 0.00 91 1016.4
20260505173750 52 301 0.0 8.0 0.00 0.00 0.00 91 1016.3
20260505173237 52 292 1.0 8.0 0.00 0.00 0.00 91 1016.4
20260505172724 52 292 3.0 6.0 0.00 0.00 0.00 91 1016.3
20260505172212 52 284 0.0 6.0 0.00 0.00 0.00 91 1016.3
20260505171658 52 315 0.0 6.0 0.00 0.00 0.00 91 1016.2
20260505171145 52 0 0.0 6.0 0.00 0.00 0.00 91 1016.2
20260505170632 52 309 3.0 6.0 0.00 0.00 0.00 91 1016.1
20260505170119 52 0 0.0 0.0 0.00 0.00 0.00 91 1016.2
20260505165606 52 281 1.0 4.0 0.00 0.00 0.00 91 1016.2
20260505165053 52 0 0.0 4.0 0.00 0.00 0.00 91 1016.2
20260505164540 53 295 1.0 4.0 0.00 0.00 0.00 91 1016.3
20260505164027 52 0 0.0 0.0 0.00 0.00 0.00 91 1016.2
20260505163514 53 0 0.0 6.0 0.00 0.00 0.00 91 1016.2
20260505163001 52 278 0.0 6.0 0.00 0.00 0.00 91 1016.2
20260505162448 52 294 1.0 6.0 0.00 0.00 0.00 91 1016.2
20260505161937 53 288 1.0 6.0 0.00 0.00 0.00 91 1016.3
20260505161423 53 0 0.0 5.0 0.00 0.00 0.00 91 1016.3
20260505160909 53 268 1.0 5.0 0.00 0.00 0.00 91 1016.2
20260505160356 52 0 0.0 5.0 0.00 0.00 0.00 91 1016.2
20260505153238 52 0 0.0 0.0 0.00 0.00 0.00 90 1016.3
20260505152725 52 0 0.0 0.0 0.00 0.00 0.00 90 1016.2
20260505152213 52 0 0.0 0.0 0.00 0.00 0.00 90 1016.2
20260505151659 52 0 0.0 0.0 0.00 0.00 0.00 90 1016.2
20260505151146 52 0 0.0 0.0 0.00 0.00 0.00 90 1016.1
20260505150633 52 0 0.0 0.0 0.00 0.00 0.00 90 1016.1
20260505150120 52 0 0.0 0.0 0.00 0.00 0.00 90 1016.1
20260505140358 52 0 0.0 0.0 0.00 0.00 0.00 90 1015.6
20260505130121 52 0 0.0 0.0 0.00 0.00 0.00 90 1015.2
20260505124542 52 0 0.0 0.0 0.00 0.00 0.00 90 1015.2
20260505124029 52 0 0.0 0.0 0.00 0.00 0.00 90 1015.2
20260505123516 52 0 0.0 0.0 0.00 0.00 0.00 90 1015.2
20260505123003 52 0 0.0 0.0 0.00 0.00 0.00 90 1015.1
20260505122450 52 0 0.0 0.0 0.00 0.00 0.00 90 1015.1
20260505121939 52 0 0.0 0.0 0.00 0.00 0.00 90 1015.1
20260505121424 52 0 0.0 0.0 0.00 0.00 0.00 90 1015.1
20260505120911 52 0 0.0 0.0 0.00 0.00 0.00 90 1015.1
20260505120358 52 0 0.0 0.0 0.00 0.00 0.00 90 1015.0
20260505115845 52 0 0.0 0.0 0.00 0.00 0.00 90 1015.0
20260505115332 52 0 0.0 0.0 0.00 0.00 0.00 90 1014.9
20260505114819 52 0 0.0 0.0 0.00 0.00 0.00 90 1014.9
20260505114306 52 0 0.0 0.0 0.00 0.00 0.00 90 1014.9
20260505113240 52 0 0.0 0.0 0.00 0.00 0.00 90 1014.9
20260505112727 52 0 0.0 0.0 0.00 0.00 0.00 90 1015.0
20260505112214 53 0 0.0 7.0 0.00 0.00 0.00 90 1015.0
20260505111701 52 0 0.0 7.0 0.00 0.00 0.00 90 1014.9
20260505111148 52 155 0.0 6.0 0.00 0.00 0.00 90 1015.0
20260505110635 52 0 0.0 5.0 0.00 0.00 0.00 90 1015.0
20260505110122 52 176 0.0 5.0 0.00 0.00 0.00 89 1015.0
20260505101938 52 0 0.0 6.0 0.00 0.00 0.00 89 1014.7
20260505101425 53 0 0.0 5.0 0.00 0.00 0.00 89 1014.7
20260505100912 52 0 0.0 5.0 0.00 0.00 0.00 89 1014.7
20260505100359 53 0 0.0 6.0 0.00 0.00 0.00 89 1014.8
20260505095846 52 0 0.0 6.0 0.00 0.00 0.00 89 1014.7
20260505095333 53 0 0.0 6.0 0.00 0.00 0.00 89 1014.8
20260505094820 53 0 0.0 0.0 0.00 0.00 0.00 88 1014.7
20260505094307 53 0 0.0 6.0 0.00 0.00 0.00 88 1014.6
20260505093754 53 270 0.0 6.0 0.00 0.00 0.00 88 1014.6
20260505093241 53 267 1.0 6.0 0.00 0.00 0.00 89 1014.5
20260505092728 52 0 0.0 4.0 0.00 0.00 0.00 88 1014.5
20260505092215 52 306 0.0 4.0 0.00 0.00 0.00 89 1014.5
20260505090636 53 0 0.0 0.0 0.00 0.00 0.00 89 1014.3
20260505090123 52 0 0.0 5.0 0.00 0.00 0.00 89 1014.4
20260505085610 52 0 0.0 5.0 0.00 0.00 0.00 89 1014.3
20260505085057 52 225 0.0 5.0 0.00 0.00 0.00 89 1014.3
20260505084544 52 0 0.0 0.0 0.00 0.00 0.00 89 1014.4
20260505083518 53 0 0.0 0.0 0.00 0.00 0.00 89 1014.4
20260505083005 52 299 0.0 6.0 0.00 0.00 0.00 89 1014.5
20260505082452 52 0 0.0 6.0 0.00 0.00 0.00 89 1014.4
20260505081939 52 0 0.0 6.0 0.00 0.00 0.00 89 1014.4
20260505081426 52 182 2.0 5.0 0.00 0.00 0.00 89 1014.4
20260505080913 52 127 2.0 9.0 0.00 0.00 0.00 89 1014.4
20260505080400 52 138 0.0 9.0 0.00 0.00 0.00 89 1014.4
20260505075847 52 0 0.0 9.0 0.00 0.00 0.00 89 1014.5
20260505074821 52 0 0.0 7.0 0.00 0.00 0.00 89 1014.6
20260505074307 52 0 0.0 7.0 0.00 0.00 0.00 89 1014.6
20260505073755 53 217 0.0 7.0 0.00 0.00 0.00 89 1014.5
20260505073243 53 240 0.0 6.0 0.00 0.00 0.00 89 1014.5
20260505072728 52 242 3.0 6.0 0.00 0.00 0.00 89 1014.5
20260505072215 52 0 0.0 4.0 0.00 0.00 0.00 88 1014.4
20260505071702 53 145 0.0 4.0 0.00 0.00 0.00 88 1014.4
20260505071149 53 238 0.0 3.0 0.00 0.00 0.00 88 1014.5
20260505070636 52 238 0.0 3.0 0.00 0.00 0.00 88 1014.5
20260505070124 53 197 1.0 8.0 0.00 0.00 0.00 88 1014.5
20260505065610 52 240 0.0 8.0 0.00 0.00 0.00 88 1014.6
20260505065057 53 247 0.0 8.0 0.00 0.00 0.00 88 1014.6
20260505064545 52 0 0.0 8.0 0.00 0.00 0.00 88 1014.6
20260505064031 53 0 0.0 8.0 0.00 0.00 0.00 88 1014.7
20260505063519 53 264 0.0 7.0 0.00 0.00 0.00 88 1014.7
20260505063006 53 140 0.0 7.0 0.00 0.00 0.00 88 1014.6
20260505062452 53 275 4.0 7.0 0.00 0.00 0.00 88 1014.5
20260505061939 53 0 0.0 5.0 0.00 0.00 0.00 87 1014.5
20260505061426 53 0 0.0 5.0 0.00 0.00 0.00 87 1014.4
20260505060913 53 0 0.0 5.0 0.00 0.00 0.00 87 1014.5
20260505055847 53 0 0.0 5.0 0.00 0.00 0.00 87 1014.5
20260505055336 53 0 0.0 5.0 0.00 0.00 0.00 87 1014.5
20260505054821 53 0 0.0 5.0 0.00 0.00 0.00 87 1014.5
20260505054308 53 0 0.0 5.0 0.00 0.00 0.00 87 1014.7
20260505053755 53 225 0.0 5.0 0.00 0.00 0.00 87 1014.7
20260505053242 53 0 0.0 5.0 0.00 0.00 0.00 87 1014.7
20260505052729 53 261 0.0 5.0 0.00 0.00 0.00 87 1014.7
20260505052216 53 257 1.0 5.0 0.00 0.00 0.00 86 1014.7
20260505051703 53 0 0.0 5.0 0.00 0.00 0.00 86 1014.6
20260505051152 53 0 0.0 0.0 0.00 0.00 0.00 86 1014.6
20260505050637 53 246 0.0 7.0 0.00 0.00 0.00 86 1014.6
20260505050124 53 268 0.0 7.0 0.00 0.00 0.00 86 1014.6
20260505041427 53 278 0.0 10.0 0.00 0.00 0.00 85 1014.1
20260505040915 53 245 0.0 10.0 0.00 0.00 0.00 85 1014.0
20260505040401 53 252 3.0 10.0 0.00 0.00 0.00 85 1013.9
20260505035849 53 0 0.0 6.0 0.00 0.00 0.00 85 1013.9
20260505035336 53 256 0.0 5.0 0.00 0.00 0.00 84 1013.8
20260505034822 53 259 2.0 9.0 0.00 0.00 0.00 84 1013.8
20260505034309 53 0 0.0 9.0 0.00 0.00 0.00 84 1013.7
20260505033757 53 232 0.0 9.0 0.00 0.00 0.00 84 1013.7
20260505033243 53 0 0.0 9.0 0.00 0.00 0.00 84 1013.7
20260505032730 53 261 0.0 9.0 0.00 0.00 0.00 83 1013.7
20260505032217 53 278 4.0 9.0 0.00 0.00 0.00 83 1013.6
20260505031704 53 224 0.0 8.0 0.00 0.00 0.00 83 1013.6
20260505031152 53 236 0.0 8.0 0.00 0.00 0.00 83 1013.5
20260505030638 53 0 0.0 8.0 0.00 0.00 0.00 83 1013.5
20260505030125 53 0 0.0 8.0 0.00 0.00 0.00 83 1013.5
20260505025612 53 180 0.0 8.0 0.00 0.00 0.00 83 1013.3
20260505025059 53 284 0.0 6.0 0.00 0.00 0.00 83 1013.3
20260505024546 53 0 0.0 0.0 0.00 0.00 0.00 83 1013.4
20260505024034 53 291 0.0 9.0 0.00 0.00 0.00 83 1013.4
20260505023523 53 263 3.0 9.0 0.00 0.00 0.00 83 1013.3
20260505023007 53 291 5.0 9.0 0.00 0.00 0.00 83 1013.3
20260505022454 53 295 0.0 7.0 0.00 0.00 0.00 83 1013.3
20260505021941 54 295 0.0 8.0 0.00 0.00 0.00 82 1013.2
20260505021428 54 253 0.0 8.0 0.00 0.00 0.00 82 1013.2
20260505020915 54 254 3.0 8.0 0.00 0.00 0.00 82 1013.1
20260505020402 54 250 0.0 8.0 0.00 0.00 0.00 82 1013.2
20260505015849 54 203 3.0 11.0 0.00 0.00 0.00 82 1013.2
20260505015336 54 198 2.0 11.0 0.00 0.00 0.00 82 1013.2
20260505014823 54 257 3.0 11.0 0.00 0.00 0.00 81 1013.2
20260505014310 54 228 2.0 4.0 0.00 0.00 0.00 81 1013.2
20260505013757 54 310 4.0 12.0 0.00 0.00 0.00 81 1013.2
20260505012732 54 25 2.0 10.0 0.00 0.00 0.00 81 1013.4
20260505012219 54 246 6.0 10.0 0.00 0.00 0.00 81 1013.4
20260505011705 54 231 5.0 10.0 0.00 0.00 0.00 81 1013.5
20260505011152 54 253 5.0 10.0 0.00 0.00 0.00 81 1013.6
20260505010639 54 257 2.0 10.0 0.00 0.00 0.00 81 1013.6
20260505005613 55 274 4.0 10.0 0.00 0.00 0.00 81 1013.7
20260505004034 55 274 7.0 13.0 0.00 0.00 0.00 81 1013.8
20260505003521 55 264 5.0 14.0 0.00 0.00 0.00 81 1013.8
20260505003008 56 260 5.0 14.0 0.00 0.00 0.00 81 1013.8
20260505001942 55 259 5.0 13.0 0.00 0.00 0.00 81 1013.8
20260504234311 55 264 3.0 18.0 0.00 0.00 0.00 80 1013.8
20260504232219 57 268 9.0 17.0 0.00 0.00 0.00 80 1013.8
20260504231706 57 245 6.0 17.0 0.00 0.00 0.00 80 1013.8
20260504231154 57 275 9.0 17.0 0.00 0.00 0.00 80 1013.8
20260504224548 56 254 7.0 14.0 0.00 0.00 0.00 82 1014.1